501  
ASUS43 KGRB 161211  
RWRGRB  
 
NORTH-CENTRAL AND NORTHEAST WISCONSIN REGIONAL WEATHER ROUNDUP  
NATIONAL WEATHER SERVICE GREEN BAY WI  
700 AM CDT TUE JUL 16 2019  
 
WIZ005-009-010>012-018-019-161300-  
NORTH CENTRAL WISCONSIN  
 
CITY SKY/WX TMP DP RH WIND PRES REMARKS
 
IRONWOOD FAIR 68 65 90 SW7 29.84R  
MANITOWISH WTR CLOUDY 65 65 100 W3 29.86R  
ARBOR VITAE CLOUDY 66 62 87 W7 29.87R  
EAGLE RIVER FAIR 65 64 96 W6 29.86R  
LAND O LAKES PTSUNNY 66 65 95 W7 29.87S  
RHINELANDER FAIR 66 63 90 W9 29.88R  
PHILLIPS CLOUDY 64 64 100 SW3 29.87R  
ANTIGO FAIR 65 65 99 SW6 29.90R  
TOMAHAWK FAIR 64 64 97 CALM 29.88R  
MERRILL FAIR 67 66 97 W5 29.88R  

 
 
WIZ013-073-161300-  
NORTHEAST WISCONSIN  
 
CITY SKY/WX TMP DP RH WIND PRES REMARKS
 
IRON MOUNTAIN FAIR 68 64 87 W5 29.83R  
MARINETTE FAIR 70 67 90 SW7 29.86R  
OCONTO FAIR 70 67 91 SW5 29.86R  

 
 
WIZ017-030-035>037-045-161300-  
CENTRAL WISCONSIN  
 
CITY SKY/WX TMP DP RH WIND PRES REMARKS
 
MEDFORD FAIR 64 63 96 SW3 29.88R  
WAUSAU FAIR 67 64 90 SW3 29.87R  
MOSINEE MOSUNNY 66 66 100 SW6 29.89R  
MARSHFIELD FAIR 67 65 93 SW3 29.88R  
WISC RAPIDS FAIR 68 66 93 S5 29.91R  
STEVENS POINT PTSUNNY 65 65 100 S7 29.90R  
WAUPACA FAIR 71 70 96 S5 29.90R  
SHAWANO FAIR 71 67 89 SW5 29.87R  
CLINTONVILLE FAIR 70 66 86 SW6 29.88R  
WAUTOMA FAIR 70 67 90 SW3 29.91R  

 
 
WIZ038-039-048-051-161300-  
FOX VALLEY  
 
CITY SKY/WX TMP DP RH WIND PRES REMARKS
 
NWS GREEN BAY FAIR 73 69 87 SW6 29.88R  
APPLETON MOSUNNY 72 68 88 W7 29.88S  
OSHKOSH FAIR 73 66 78 SW8 29.89S  
FOND DU LAC FAIR 74 65 73 SW6 29.90F  

 
 
WIZ022-050-052-161300-  
EAST CENTRAL WISCONSIN  
 
CITY SKY/WX TMP DP RH WIND PRES REMARKS
 
EPHRAIM FAIR 68 67 96 CALM 29.85S  
WASHINGTON ISL CLOUDY 69 67 96 SW7 29.85R  
STURGEON BAY FAIR 71 68 90 SW8 29.87S  
MANITOWOC FAIR 74 66 76 SW8 29.90S  
SHEBOYGAN FAIR 73 65 75 W10 29.91R  

 
 
LMZ563-521-522-541>543-161300-  
LAKESHORE  
 
STATION/POSITION TIME TEMP WIND PRES VSBY WAVE
 
AIR SEA DIR/SP/G HT/PER  
(UTC) (F) (DEG/KT/KT) (MB) (MI) (FT/S)  
SHEBOYGAN LKSHOR 1200 73 240/ 8/ 8 1012.1R  
KEWAUNEE LKSHORE 1130 61 190/ 2/ 5 1011.0F  
NORTHPORT PIER 1200 71 160/ 2/ 8 1010.8  
N MID LAKE BUOY 1150 67 64 190/ 10/ 14 1011.1R 2/ 4  
S GREEN BAY BUOY 1130 76 74 220/ 12/ 14 1011.5R  
SISTER BAY LKSHO 1112 69 150/ 5/ 6 N/A  
CHAMBERS ISLAND 1140 72 200/ 6/ 10 1012.9R  
MENOMINEE LKSHOR 1130 70 74 210/ 6/ 8 1010.5S  

 
 
 
CLICK HERE TO GO TO PREVIOUS BULLETINS.

The Nexlab WI Page Main Text Page